STARLINK-30472, 57901

Orbit data source: Space-Track

STARLINK-30472, 57901 is a payload satellite owned by SpaceX/Seattle (US) in LEO that was launched on Wed, 20 Sep 2023 UTC via an FALCON 9 launch vehicle from the Air Force Eastern Test Range (AFETR). Payload-class satellites include a variety of spacecraft equipped with specific instruments for various scientific and technological missions. These include communications satellites like Starlink; space stations such as the ISS; scientific satellites like the Hubble; Earth observation satellites from companies like Planet Labs, Umbra, and HawkEye 360; GPS; miniature CubeSats for education and research; and military/defense satellites.

Loading next visibility...
Identifier
57901, 2023-146L
Orbit
LEO
Country
Flag of USUS
Related business
Manufacturer
SpaceX/Seattle
Mission
Operational Commercial Communications
Bus & Motor
STARLINK V2M, Unknown motor
Mass
730 kg wet, ~700 kg dry
Launch date (UTC)
2023-09-20 (3 years ago)
Launch vehicle
FALCON 9
Launch site
Air Force Eastern Test Range (AFETR)
Object type
Payload
Rocket body
Debris
Shape & HBR
Box + 2 Pan, 17.7 m
Radar Cross Section
33.884 m², Large (>1 m²)

Expand to show TLE details & history
Last TLE update: 2 days ago

TLE from 2 days ago
0 STARLINK-30472
1 57901U 23146L   26171.12114280  .00000939  00000-0  43650-4 0  9997
2 57901  43.0021  92.1547 0001255 266.0287  94.0421 15.27586088151700
Epoch: 2026-06-20T02:54Z
TLE epoch observation values (Epoch: 2026-06-20T02:54:26.737Z)
Latitude
-0.00005°
Longitude
140.20292°
Altitude
482.867 km
Speed
7.626 km/s
True Right ascension
06h 08m 37s
True Declination
0° 00' 00"
Sunlit
Object was in daylight at epoch
Visualization orbit readout
Latitude
Unknown
Longitude
Unknown
Altitude
Unknown
Speed
Unknown
Apparent Right ascension
Unknown
Apparent Declination
Unknown
Sunlit
N/A
Visualization observer readout
Local Sidereal Time
21:39:14
Azimuth
Unknown
Elevation
Unknown
Doppler factor
Unknown
Orbital elements
Apogee altitude
485.837 km
Perigee altitude
484.114 km
Semi-major axis
6,863.113 km
Eccentricity
0.00013
Inclination
43.0021°
RAAN
92.1547°
Arg. of periapsis
266.0287°
True anomaly
94.05645°
Mean anomaly
94.0421°
Eccentric anomaly
94.04927°
Mean motion
3.81735 °/min
Orbital period
94.31 mins
BSTAR
0.00004365
Loading maneuver chart data...
Computing Atmospheric mass density...
Loading historical data...
Loading historical data...
Loading historical data...
Loading historical data...
Loading historical data...
Loading historical data...
Loading historical data...

Documentation

Showing up to 5 results
|